Location: McFarlands Corners
(41.4117°N, 81.3382°W)
Time: 04:53:51
(UTC+00:00)

A-11 Canister half - Pass Details

Date: 17 February 2026
Orbit: 1524 x 1683 km, 47.3° (Epoch: 14 March)

Event Time Altitude Azimuth Distance (km) Brightness Sun altitude
Rises 03:52:16 0° 296° (WNW) 4,677 12.1 -52.4°
Reaches altitude 10° 03:55:18 10° 295° (WNW) 3,696 11.4 -52.8°
Enters shadow 03:58:27 25° 293° (WNW) 2,722 10.5 -53.2°
